TimeCDT,TemperatureF,Dew PointF,Humidity,Sea Level PressureIn,VisibilityMPH,Wind Direction,Wind SpeedMPH,Gust SpeedMPH,PrecipitationIn,Events,Conditions,WindDirDegrees,DateUTC
12:53 AM,75.0,66.9,76,29.90,10.0,SSE,4.6,-,N/A,,Clear,160,2013-09-19 05:53:00
1:53 AM,75.0,66.9,76,29.91,10.0,SSE,5.8,-,N/A,,Clear,150,2013-09-19 06:53:00
2:53 AM,73.0,66.9,81,29.91,9.0,SE,4.6,-,N/A,,Clear,130,2013-09-19 07:53:00
3:53 AM,73.0,66.9,81,29.90,8.0,ESE,4.6,-,N/A,,Clear,120,2013-09-19 08:53:00
4:53 AM,73.0,66.9,81,29.91,8.0,SE,3.5,-,N/A,,Clear,130,2013-09-19 09:53:00
5:53 AM,73.9,66.0,76,29.91,9.0,SSE,4.6,-,N/A,,Clear,150,2013-09-19 10:53:00
6:53 AM,73.0,66.0,79,29.91,9.0,SE,3.5,-,N/A,,Clear,130,2013-09-19 11:53:00
7:53 AM,73.9,66.0,76,29.91,7.0,ESE,4.6,-,N/A,,Clear,110,2013-09-19 12:53:00
8:53 AM,75.9,66.0,71,29.92,8.0,Calm,Calm,-,N/A,,Clear,0,2013-09-19 13:53:00
9:53 AM,80.1,66.0,62,29.93,9.0,South,5.8,-,N/A,,Partly Cloudy,180,2013-09-19 14:53:00
10:53 AM,80.1,66.9,64,29.93,9.0,South,8.1,-,N/A,,Scattered Clouds,190,2013-09-19 15:53:00
11:53 AM,82.9,68.0,60,29.92,10.0,SSW,9.2,17.3,N/A,,Partly Cloudy,210,2013-09-19 16:53:00
12:53 PM,84.9,66.9,55,29.91,10.0,SSW,10.4,-,N/A,,Overcast,210,2013-09-19 17:53:00
1:53 PM,84.9,66.9,55,29.89,10.0,SSW,10.4,-,N/A,,Mostly Cloudy,210,2013-09-19 18:53:00
2:53 PM,87.1,68.0,53,29.86,10.0,South,12.7,-,N/A,,Partly Cloudy,190,2013-09-19 19:53:00
3:53 PM,89.1,69.1,52,29.83,10.0,South,6.9,-,N/A,,Clear,190,2013-09-19 20:53:00
4:53 PM,89.1,69.1,52,29.79,10.0,South,8.1,-,N/A,,Partly Cloudy,180,2013-09-19 21:53:00
5:53 PM,88.0,68.0,51,29.79,10.0,South,11.5,-,N/A,,Clear,180,2013-09-19 22:53:00
6:53 PM,86.0,68.0,55,29.80,10.0,SSE,6.9,-,N/A,,Partly Cloudy,150,2013-09-19 23:53:00
7:53 PM,84.0,69.1,61,29.80,10.0,South,13.8,-,N/A,,Clear,180,2013-09-20 00:53:00
8:53 PM,82.0,66.0,58,29.83,10.0,South,8.1,23.0,N/A,,Clear,190,2013-09-20 01:53:00
9:53 PM,80.1,64.9,60,29.86,10.0,SSW,5.8,-,N/A,,Clear,210,2013-09-20 02:53:00
10:53 PM,75.9,64.9,69,29.89,10.0,NNW,11.5,18.4,N/A,,Overcast,340,2013-09-20 03:53:00
11:30 PM,73.4,64.4,73,29.93,10.0,NW,6.9,-,N/A,Thunderstorm,Overcast,310,2013-09-20 04:30:00
11:45 PM,71.6,64.4,78,29.94,7.0,NW,4.6,-,0.01,Rain-Thunderstorm,Rain,310,2013-09-20 04:45:00
11:53 PM,72.0,64.9,78,29.89,10.0,Calm,Calm,-,0.01,Rain-Thunderstorm,Light Rain,0,2013-09-20 04:53:00